Radiation Dose at Monitoring Post of Fukushima Daini Nuclear Power Station
Date,Time,MP-1(microSv/h),MP-2(microSv/h),MP-3(microSv/h),MP-4(microSv/h),MP-5(microSv/h),MP-6(microSv/h),MP-7(microSv/h),Wind Direction,Wind Velocity(m/s),Rain
2019/02/03,00:00,0.214,0.197,0.321,0.299,0.280,0.159,0.096,-,CALM,No
2019/02/03,00:10,0.215,0.197,0.320,0.299,0.279,0.158,0.096,west-southwest,1.0,No
2019/02/03,00:20,0.215,0.198,0.320,0.298,0.280,0.159,0.096,-,CALM,No
2019/02/03,00:30,0.214,0.197,0.321,0.300,0.278,0.159,0.096,southeast,1.3,No
2019/02/03,00:40,0.213,0.195,0.320,0.300,0.278,0.160,0.096,south,2.3,No
2019/02/03,00:50,0.215,0.196,0.321,0.299,0.280,0.159,0.096,south,0.6,No
2019/02/03,01:00,0.215,0.199,0.321,0.298,0.281,0.159,0.097,-,CALM,No
2019/02/03,01:10,0.214,0.197,0.321,0.299,0.278,0.159,0.096,west-southwest,1.7,No
2019/02/03,01:20,0.215,0.197,0.322,0.299,0.278,0.160,0.096,west,3.0,No
2019/02/03,01:30,0.214,0.197,0.320,0.299,0.279,0.159,0.096,west-southwest,3.3,No
2019/02/03,01:40,0.214,0.196,0.320,0.299,0.278,0.159,0.096,west-southwest,3.9,No
2019/02/03,01:50,0.214,0.197,0.319,0.298,0.278,0.158,0.096,west-southwest,7.3,No
2019/02/03,02:00,0.215,0.197,0.320,0.298,0.278,0.158,0.097,west,8.1,No
2019/02/03,02:10,0.215,0.196,0.321,0.298,0.278,0.159,0.096,west,6.8,No
2019/02/03,02:20,0.214,0.196,0.320,0.298,0.279,0.159,0.096,west,7.1,No
2019/02/03,02:30,0.214,0.197,0.319,0.298,0.279,0.159,0.096,west,7.3,No
2019/02/03,02:40,0.215,0.196,0.320,0.298,0.278,0.158,0.096,west-northwest,8.2,No
2019/02/03,02:50,0.214,0.196,0.320,0.298,0.280,0.160,0.096,northwest,10.1,No
2019/02/03,03:00,0.214,0.197,0.320,0.300,0.279,0.158,0.096,west-northwest,7.4,No
2019/02/03,03:10,0.214,0.197,0.321,0.300,0.279,0.158,0.096,northwest,5.4,No
2019/02/03,03:20,0.215,0.196,0.320,0.299,0.279,0.159,0.095,west-northwest,5.9,No
2019/02/03,03:30,0.214,0.197,0.321,0.298,0.278,0.159,0.096,northwest,6.2,No
2019/02/03,03:40,0.215,0.196,0.322,0.300,0.279,0.158,0.097,northwest,6.5,No
2019/02/03,03:50,0.213,0.196,0.321,0.298,0.278,0.160,0.096,northwest,6.2,No
2019/02/03,04:00,0.213,0.197,0.320,0.298,0.278,0.158,0.096,northwest,6.6,No
2019/02/03,04:10,0.214,0.196,0.320,0.298,0.279,0.159,0.096,northwest,7.0,No
2019/02/03,04:20,0.215,0.196,0.320,0.297,0.279,0.159,0.096,west-northwest,7.0,No
2019/02/03,04:30,0.213,0.195,0.320,0.299,0.279,0.159,0.096,west-northwest,7.6,No
2019/02/03,04:40,0.214,0.196,0.321,0.298,0.278,0.159,0.096,west-northwest,7.6,No
2019/02/03,04:50,0.214,0.197,0.320,0.298,0.277,0.158,0.096,west-northwest,5.2,No
2019/02/03,05:00,0.215,0.197,0.321,0.301,0.280,0.159,0.095,west,3.3,No
2019/02/03,05:10,0.213,0.196,0.320,0.298,0.277,0.159,0.096,west,2.6,No
2019/02/03,05:20,0.213,0.196,0.319,0.298,0.279,0.159,0.096,west,1.8,No
2019/02/03,05:30,0.214,0.196,0.319,0.299,0.277,0.158,0.096,west,1.5,No
2019/02/03,05:40,0.215,0.198,0.320,0.298,0.279,0.159,0.096,north-northwest,0.9,No
2019/02/03,05:50,0.215,0.196,0.320,0.298,0.278,0.160,0.096,east-northeast,1.2,No
2019/02/03,06:00,0.214,0.197,0.321,0.299,0.278,0.158,0.096,west-northwest,1.5,No
2019/02/03,06:10,0.214,0.195,0.321,0.297,0.278,0.159,0.096,west,2.0,No
2019/02/03,06:20,0.215,0.197,0.320,0.300,0.279,0.159,0.096,west,3.2,No
2019/02/03,06:30,0.213,0.197,0.320,0.298,0.278,0.159,0.095,west,4.4,No
2019/02/03,06:40,0.214,0.196,0.319,0.298,0.279,0.159,0.095,west,6.0,No
2019/02/03,06:50,0.212,0.196,0.320,0.299,0.278,0.159,0.096,west,6.3,No
2019/02/03,07:00,0.212,0.197,0.320,0.299,0.278,0.158,0.096,west,6.7,No
2019/02/03,07:10,0.213,0.197,0.319,0.298,0.277,0.158,0.097,west,7.9,No
2019/02/03,07:20,0.214,0.196,0.320,0.296,0.279,0.159,0.095,west,8.1,No
2019/02/03,07:30,0.214,0.196,0.319,0.297,0.277,0.160,0.096,west,9.3,No
2019/02/03,07:40,0.214,0.196,0.320,0.298,0.279,0.159,0.096,west,8.4,No
2019/02/03,07:50,0.213,0.196,0.321,0.297,0.277,0.158,0.096,west,8.4,No
2019/02/03,08:00,0.213,0.196,0.319,0.299,0.278,0.159,0.096,west,9.2,No
2019/02/03,08:10,0.213,0.196,0.320,0.298,0.279,0.159,0.095,west,7.5,No
2019/02/03,08:20,0.213,0.196,0.320,0.297,0.278,0.159,0.096,west,7.0,No
2019/02/03,08:30,0.213,0.196,0.319,0.298,0.278,0.158,0.095,west,7.3,No
2019/02/03,08:40,0.212,0.196,0.319,0.297,0.280,0.158,0.096,west,7.9,No
2019/02/03,08:50,0.213,0.196,0.321,0.298,0.279,0.158,0.096,west,7.3,No
2019/02/03,09:00,0.213,0.196,0.319,0.298,0.278,0.158,0.095,west,4.6,No
2019/02/03,09:10,0.212,0.196,0.318,0.296,0.281,0.159,0.095,west-southwest,1.6,No
2019/02/03,09:20,0.214,0.197,0.319,0.298,0.278,0.159,0.095,west-southwest,2.4,No
2019/02/03,09:30,0.213,0.196,0.320,0.297,0.279,0.157,0.095,west-southwest,4.8,No
2019/02/03,09:40,0.212,0.195,0.319,0.297,0.279,0.158,0.095,west-southwest,3.0,No
2019/02/03,09:50,0.213,0.195,0.319,0.299,0.279,0.159,0.095,southwest,3.2,No
2019/02/03,10:00,0.213,0.194,0.319,0.296,0.279,0.160,0.095,southwest,2.7,No
2019/02/03,10:10,0.213,0.196,0.320,0.299,0.278,0.158,0.096,south-southeast,2.7,No
2019/02/03,10:20,0.215,0.196,0.319,0.296,0.281,0.159,0.095,south-southeast,5.4,No
2019/02/03,10:30,0.213,0.195,0.319,0.300,0.276,0.158,0.095,south-southeast,5.9,No
2019/02/03,10:40,0.215,0.197,0.320,0.296,0.279,0.158,0.095,south-southeast,6.0,No
2019/02/03,10:50,0.213,0.196,0.317,0.298,0.279,0.159,0.095,south-southeast,5.8,No
2019/02/03,11:00,0.213,0.197,0.320,0.300,0.278,0.158,0.095,south-southeast,6.3,No
2019/02/03,11:10,0.214,0.196,0.318,0.298,0.280,0.159,0.095,south-southeast,6.2,No
2019/02/03,11:20,0.213,0.196,0.319,0.297,0.278,0.158,0.096,south-southeast,6.0,No
2019/02/03,11:30,0.213,0.197,0.319,0.298,0.281,0.159,0.096,south-southeast,5.4,No
2019/02/03,11:40,0.213,0.196,0.319,0.298,0.278,0.160,0.095,south-southeast,5.0,No
2019/02/03,11:50,0.213,0.196,0.319,0.299,0.280,0.159,0.095,south-southeast,4.4,No
2019/02/03,12:00,0.212,0.196,0.319,0.298,0.280,0.159,0.095,south-southeast,5.1,No
2019/02/03,12:10,0.213,0.197,0.320,0.298,0.280,0.159,0.096,south-southeast,5.2,No
2019/02/03,12:20,0.213,0.197,0.320,0.297,0.278,0.160,0.096,southeast,7.0,No
2019/02/03,12:30,0.214,0.195,0.319,0.299,0.280,0.158,0.096,southeast,7.3,No
2019/02/03,12:40,0.211,0.196,0.319,0.298,0.277,0.158,0.095,south-southeast,7.6,No
2019/02/03,12:50,0.212,0.195,0.318,0.296,0.279,0.159,0.095,south-southeast,7.3,No
2019/02/03,13:00,0.212,0.197,0.319,0.296,0.277,0.159,0.095,south-southeast,7.9,No
2019/02/03,13:10,0.212,0.195,0.317,0.298,0.280,0.160,0.095,south-southeast,7.8,No
2019/02/03,13:20,0.213,0.195,0.319,0.296,0.279,0.159,0.095,southeast,8.8,No
2019/02/03,13:30,0.212,0.194,0.320,0.298,0.279,0.159,0.096,southeast,8.8,No
2019/02/03,13:40,0.214,0.197,0.319,0.299,0.279,0.159,0.095,south-southeast,9.0,No
2019/02/03,13:50,0.213,0.196,0.318,0.298,0.280,0.158,0.095,south-southeast,7.9,No
2019/02/03,14:00,0.214,0.196,0.322,0.300,0.279,0.160,0.095,south-southeast,8.6,No
2019/02/03,14:10,0.214,0.196,0.318,0.299,0.280,0.158,0.095,southeast,8.6,No
2019/02/03,14:20,0.213,0.196,0.319,0.297,0.279,0.159,0.095,southeast,8.8,No
2019/02/03,14:30,0.214,0.195,0.320,0.299,0.279,0.159,0.096,south-southeast,8.2,No
2019/02/03,14:40,0.213,0.197,0.320,0.297,0.280,0.160,0.095,southeast,10.0,No
2019/02/03,14:50,0.214,0.195,0.319,0.299,0.280,0.160,0.095,southeast,10.3,No
2019/02/03,15:00,0.214,0.196,0.321,0.299,0.279,0.159,0.095,southeast,9.0,No
2019/02/03,15:10,0.213,0.197,0.319,0.297,0.281,0.159,0.095,south-southeast,7.5,No
2019/02/03,15:20,0.214,0.197,0.321,0.299,0.279,0.159,0.095,south-southeast,8.4,No
2019/02/03,15:30,0.213,0.197,0.319,0.300,0.280,0.159,0.095,south-southeast,7.1,No
2019/02/03,15:40,0.213,0.196,0.318,0.298,0.280,0.160,0.096,south-southeast,6.3,No
2019/02/03,15:50,0.214,0.195,0.319,0.300,0.279,0.160,0.096,south-southeast,5.4,No
2019/02/03,16:00,0.213,0.196,0.319,0.299,0.281,0.159,0.096,south-southeast,5.5,No
2019/02/03,16:10,0.213,0.195,0.319,0.297,0.278,0.159,0.096,south-southeast,5.5,No
2019/02/03,16:20,0.213,0.196,0.320,0.299,0.279,0.159,0.095,south-southeast,5.5,No
2019/02/03,16:30,0.213,0.197,0.319,0.298,0.280,0.159,0.095,south,6.4,No
2019/02/03,16:40,0.213,0.197,0.318,0.298,0.279,0.158,0.095,south,6.4,No
2019/02/03,16:50,0.213,0.197,0.320,0.299,0.280,0.159,0.096,south,5.3,No
2019/02/03,17:00,0.212,0.195,0.321,0.298,0.280,0.159,0.096,south,4.8,No
2019/02/03,17:10,0.213,0.197,0.319,0.298,0.278,0.158,0.095,south,4.9,No
2019/02/03,17:20,0.212,0.197,0.320,0.299,0.281,0.160,0.096,south,3.6,No
2019/02/03,17:30,0.212,0.197,0.317,0.297,0.279,0.159,0.096,south-southeast,4.2,No
2019/02/03,17:40,0.213,0.195,0.321,0.298,0.280,0.159,0.095,south-southeast,5.4,No
2019/02/03,17:50,0.213,0.195,0.319,0.299,0.281,0.159,0.096,southeast,6.1,No
2019/02/03,18:00,0.214,0.196,0.318,0.297,0.278,0.159,0.095,south-southeast,7.1,No
2019/02/03,18:10,0.212,0.195,0.319,0.297,0.280,0.159,0.096,south-southeast,7.5,Yes
2019/02/03,18:20,0.214,0.198,0.320,0.299,0.280,0.158,0.096,south-southeast,6.5,Yes
2019/02/03,18:30,0.214,0.197,0.320,0.298,0.278,0.159,0.097,southeast,8.1,Yes
2019/02/03,18:40,0.215,0.198,0.322,0.301,0.282,0.161,0.097,southeast,9.0,Yes
2019/02/03,18:50,0.216,0.199,0.323,0.301,0.283,0.163,0.099,south-southeast,8.5,Yes
2019/02/03,19:00,0.217,0.200,0.323,0.301,0.282,0.164,0.100,south-southeast,8.1,Yes
2019/02/03,19:10,0.217,0.200,0.323,0.303,0.284,0.165,0.101,south-southeast,5.6,Yes
2019/02/03,19:20,0.218,0.202,0.324,0.302,0.283,0.166,0.102,south,4.5,Yes
2019/02/03,19:30,0.218,0.202,0.323,0.303,0.282,0.166,0.103,south-southeast,3.9,Yes
2019/02/03,19:40,0.218,0.201,0.325,0.303,0.285,0.166,0.102,south,3.3,Yes
2019/02/03,19:50,0.217,0.202,0.323,0.302,0.282,0.164,0.101,south,4.3,Yes
2019/02/03,20:00,0.216,0.199,0.320,0.299,0.280,0.163,0.100,south,5.2,Yes
2019/02/03,20:10,0.215,0.198,0.321,0.298,0.281,0.164,0.099,south-southeast,5.0,No
2019/02/03,20:20,0.216,0.200,0.319,0.299,0.279,0.161,0.099,south,3.5,No
2019/02/03,20:30,0.214,0.197,0.319,0.298,0.277,0.161,0.097,south,4.1,No
2019/02/03,20:40,0.214,0.196,0.318,0.297,0.278,0.160,0.097,south-southwest,4.1,No
2019/02/03,20:50,0.214,0.197,0.319,0.297,0.278,0.160,0.097,south-southwest,3.8,Yes
2019/02/03,21:00,0.213,0.195,0.317,0.298,0.278,0.160,0.097,south-southwest,4.8,Yes
2019/02/03,21:10,0.212,0.195,0.318,0.295,0.277,0.159,0.096,south-southwest,4.7,Yes
2019/02/03,21:20,0.213,0.197,0.318,0.297,0.277,0.160,0.096,south-southwest,5.2,Yes
2019/02/03,21:30,0.213,0.194,0.317,0.294,0.276,0.159,0.095,south-southwest,5.3,Yes
2019/02/03,21:40,0.212,0.194,0.317,0.295,0.277,0.159,0.095,south-southwest,5.6,No
2019/02/03,21:50,0.212,0.196,0.316,0.296,0.277,0.159,0.096,south-southwest,6.1,No
2019/02/03,22:00,0.212,0.195,0.316,0.296,0.278,0.159,0.096,south-southwest,5.5,Yes
2019/02/03,22:10,0.211,0.194,0.315,0.295,0.277,0.158,0.095,south-southwest,6.2,No
2019/02/03,22:20,0.213,0.195,0.316,0.295,0.277,0.158,0.096,south-southwest,5.8,No
2019/02/03,22:30,0.212,0.195,0.316,0.296,0.277,0.158,0.095,south-southwest,5.5,No
2019/02/03,22:40,0.211,0.195,0.316,0.293,0.276,0.158,0.096,south,7.3,No
2019/02/03,22:50,0.212,0.194,0.317,0.296,0.278,0.158,0.095,south,7.1,No
2019/02/03,23:00,0.211,0.194,0.314,0.296,0.277,0.158,0.095,south-southwest,7.5,No
2019/02/03,23:10,0.211,0.196,0.316,0.295,0.276,0.158,0.096,south-southwest,7.6,No
2019/02/03,23:20,0.212,0.194,0.317,0.296,0.277,0.158,0.095,south,9.0,No
2019/02/03,23:30,0.212,0.194,0.316,0.296,0.277,0.157,0.095,south,8.5,No
2019/02/03,23:40,0.212,0.194,0.316,0.295,0.276,0.158,0.095,south,9.0,No
2019/02/03,23:50,0.213,0.195,0.316,0.295,0.277,0.158,0.095,south,7.5,No
